| time (UTC) | temp C | wind direction | speed KPH | gust KPH | rain 1hr cm | rain 24hr cm | rain mn cm | humidity % | barometer mb |
| 20260507141549 | 17 | 75 | 1.6 | 11.3 | 0.03 | 0.05 | 0.05 | 83 | 1010.2 |
| 20260507140047 | 17 | 188 | 1.6 | 12.9 | 0.03 | 0.05 | 0.05 | 83 | 1010.2 |
| 20260507134548 | 17 | 174 | 3.2 | 11.3 | 0.03 | 0.05 | 0.05 | 82 | 1010.2 |
| 20260507133145 | 17 | 250 | 1.6 | 9.7 | 0.03 | 0.05 | 0.05 | 82 | 1010.3 |
| 20260507131543 | 18 | 202 | 4.8 | 16.1 | 0.00 | 0.03 | 0.03 | 79 | 1010.2 |
| 20260507130043 | 18 | 170 | 3.2 | 12.9 | 0.00 | 0.03 | 0.03 | 77 | 1010.3 |
| 20260507124547 | 18 | 138 | 0.0 | 4.8 | 0.00 | 0.03 | 0.03 | 77 | 1010.4 |
| 20260507123043 | 18 | 138 | 0.0 | 4.8 | 0.00 | 0.03 | 0.03 | 77 | 1010.6 |
| 20260507121542 | 18 | 117 | 3.2 | 14.5 | 0.00 | 0.03 | 0.03 | 75 | 1010.8 |
| 20260507120040 | 18 | 128 | 6.4 | 19.3 | 0.00 | 0.03 | 0.03 | 73 | 1010.8 |
| 20260507114556 | 19 | 132 | 8.0 | 16.1 | 0.00 | 0.03 | 0.03 | 72 | 1010.8 |
| 20260507113101 | 18 | 98 | 4.8 | 16.1 | 0.00 | 0.03 | 0.03 | 72 | 1010.8 |
| 20260507111541 | 18 | 115 | 12.9 | 20.9 | 0.00 | 0.03 | 0.03 | 72 | 1011.0 |
| 20260507110033 | 18 | 111 | 11.3 | 19.3 | 0.00 | 0.03 | 0.03 | 73 | 1011.1 |
| 20260507104539 | 18 | 126 | 9.7 | 19.3 | 0.00 | 0.03 | 0.03 | 74 | 1011.4 |
| 20260507103131 | 18 | 109 | 9.7 | 17.7 | 0.00 | 0.03 | 0.03 | 73 | 1011.3 |
| 20260507101530 | 18 | 132 | 11.3 | 25.7 | 0.00 | 0.03 | 0.03 | 71 | 1011.2 |
| 20260507100029 | 18 | 107 | 11.3 | 22.5 | 0.00 | 0.03 | 0.03 | 71 | 1011.0 |
| 20260507094528 | 19 | 111 | 11.3 | 20.9 | 0.03 | 0.03 | 0.03 | 72 | 1011.1 |
| 20260507093028 | 18 | 111 | 8.0 | 22.5 | 0.03 | 0.03 | 0.03 | 74 | 1011.2 |
| 20260507091523 | 18 | 132 | 6.4 | 14.5 | 0.03 | 0.03 | 0.03 | 76 | 1011.4 |
| 20260507090019 | 17 | 105 | 11.3 | 20.9 | 0.03 | 0.03 | 0.03 | 76 | 1011.3 |
| 20260507084515 | 17 | 111 | 1.6 | 6.4 | 0.00 | 0.00 | 0.00 | 79 | 1011.3 |
| 20260507083015 | 17 | 41 | 0.0 | 4.8 | 0.00 | 0.00 | 0.00 | 79 | 1011.4 |
| 20260507081513 | 17 | 40 | 0.0 | 3.2 | 0.00 | 0.00 | 0.00 | 79 | 1011.4 |
| 20260507080013 | 17 | 40 | 0.0 | 4.8 | 0.00 | 0.00 | 0.00 | 79 | 1011.5 |
| 20260507074510 | 17 | 40 | 0.0 | 4.8 | 0.00 | 0.00 | 0.00 | 78 | 1011.4 |
| 20260507073008 | 17 | 40 | 1.6 | 6.4 | 0.00 | 0.00 | 0.00 | 77 | 1011.4 |
| 20260507071506 | 17 | 36 | 3.2 | 8.0 | 0.00 | 0.00 | 0.00 | 77 | 1011.2 |
| 20260507070012 | 16 | 28 | 0.0 | 8.0 | 0.00 | 0.00 | 0.00 | 78 | 1011.0 |
| 20260507064503 | 16 | 47 | 1.6 | 6.4 | 0.00 | 0.00 | 0.00 | 78 | 1011.1 |
| 20260507063002 | 16 | 84 | 0.0 | 6.4 | 0.00 | 0.00 | 0.00 | 79 | 1010.9 |
| 20260507061600 | 15 | 84 | 0.0 | 3.2 | 0.00 | 0.00 | 0.00 | 80 | 1010.9 |
| 20260507054557 | 15 | 86 | 0.0 | 3.2 | 0.00 | 0.00 | 0.00 | 81 | 1010.6 |
| 20260507053051 | 15 | 101 | 0.0 | 0.0 | 0.00 | 0.00 | 0.00 | 82 | 1010.8 |
| 20260507051548 | 14 | 101 | 0.0 | 1.6 | 0.00 | 0.00 | 0.00 | 82 | 1010.8 |
| 20260507050046 | 14 | 98 | 0.0 | 1.6 | 0.00 | 0.00 | 0.00 | 82 | 1010.5 |
| 20260507044555 | 15 | 98 | 0.0 | 0.0 | 0.00 | 0.00 | 0.00 | 81 | 1010.5 |
| 20260507043059 | 15 | 98 | 0.0 | 1.6 | 0.00 | 0.00 | 0.00 | 82 | 1010.5 |
| 20260507041542 | 15 | 98 | 0.0 | 4.8 | 0.00 | 0.00 | 0.00 | 83 | 1010.5 |
| 20260507040042 | 15 | 98 | 0.0 | 0.0 | 0.00 | 0.00 | 0.00 | 84 | 1010.5 |
| 20260507034542 | 15 | 98 | 0.0 | 0.0 | 0.00 | 0.00 | 0.00 | 84 | 1010.4 |
| 20260507033040 | 15 | 98 | 0.0 | 0.0 | 0.00 | 0.00 | 0.00 | 84 | 1010.4 |
| 20260507031545 | 15 | 98 | 0.0 | 0.0 | 0.00 | 0.00 | 0.00 | 84 | 1010.4 |
| 20260507030038 | 15 | 98 | 0.0 | 0.0 | 0.00 | 0.00 | 0.00 | 84 | 1010.4 |
| 20260507024536 | 15 | 98 | 0.0 | 0.0 | 0.00 | 0.00 | 0.00 | 83 | 1010.4 |
| 20260507023035 | 15 | 98 | 0.0 | 0.0 | 0.00 | 0.00 | 0.00 | 84 | 1010.4 |
| 20260507021537 | 15 | 98 | 0.0 | 0.0 | 0.00 | 0.00 | 0.00 | 83 | 1010.5 |
| 20260507020046 | 15 | 98 | 0.0 | 1.6 | 0.00 | 0.00 | 0.00 | 83 | 1010.5 |
| 20260507014536 | 16 | 98 | 0.0 | 1.6 | 0.00 | 0.00 | 0.00 | 83 | 1010.7 |
| 20260507013029 | 16 | 98 | 0.0 | 1.6 | 0.00 | 0.00 | 0.00 | 82 | 1010.8 |
| 20260507011540 | 16 | 98 | 0.0 | 3.2 | 0.00 | 0.00 | 0.00 | 82 | 1010.8 |
| 20260507010034 | 16 | 98 | 0.0 | 3.2 | 0.00 | 0.00 | 0.00 | 82 | 1010.8 |
| 20260507004525 | 16 | 98 | 0.0 | 0.0 | 0.00 | 0.00 | 0.00 | 82 | 1010.8 |
| 20260507003024 | 16 | 98 | 0.0 | 4.8 | 0.00 | 0.00 | 0.00 | 82 | 1010.8 |
| 20260507001548 | 16 | 98 | 0.0 | 3.2 | 0.00 | 0.00 | 0.00 | 82 | 1011.0 |
| 20260507000024 | 16 | 98 | 0.0 | 4.8 | 0.00 | 0.00 | 0.00 | 82 | 1011.1 |
| 20260506234519 | 16 | 98 | 0.0 | 4.8 | 0.00 | 0.00 | 0.00 | 82 | 1011.2 |
| 20260506233019 | 16 | 99 | 0.0 | 3.2 | 0.00 | 0.00 | 0.00 | 82 | 1011.4 |
| 20260506231518 | 16 | 99 | 0.0 | 3.2 | 0.00 | 0.00 | 0.00 | 82 | 1011.3 |
| 20260506230016 | 16 | 99 | 0.0 | 3.2 | 0.00 | 0.00 | 0.00 | 82 | 1011.4 |
| 20260506224516 | 16 | 99 | 0.0 | 3.2 | 0.00 | 0.00 | 0.00 | 82 | 1011.4 |
| 20260506223014 | 16 | 99 | 0.0 | 4.8 | 0.00 | 0.00 | 0.00 | 83 | 1011.4 |
| 20260506221515 | 16 | 99 | 0.0 | 3.2 | 0.00 | 0.00 | 0.00 | 83 | 1011.4 |
| 20260506220011 | 16 | 96 | 1.6 | 6.4 | 0.00 | 0.00 | 0.00 | 83 | 1011.4 |
| 20260506214510 | 16 | 96 | 1.6 | 6.4 | 0.00 | 0.00 | 0.00 | 83 | 1011.7 |
| 20260506213010 | 17 | 116 | 3.2 | 11.3 | 0.00 | 0.00 | 0.00 | 83 | 1011.8 |
| 20260506211509 | 17 | 117 | 1.6 | 11.3 | 0.00 | 0.00 | 0.00 | 83 | 1011.7 |
| 20260506210009 | 17 | 108 | 4.8 | 12.9 | 0.00 | 0.00 | 0.00 | 82 | 1011.6 |
| 20260506204506 | 17 | 111 | 6.4 | 12.9 | 0.00 | 0.00 | 0.00 | 82 | 1011.6 |
| 20260506203009 | 17 | 136 | 6.4 | 14.5 | 0.00 | 0.00 | 0.00 | 82 | 1011.5 |
| 20260506201504 | 17 | 98 | 4.8 | 11.3 | 0.00 | 0.00 | 0.00 | 81 | 1011.4 |
| 20260506200001 | 17 | 130 | 6.4 | 12.9 | 0.00 | 0.00 | 0.00 | 80 | 1010.9 |
| 20260506194503 | 17 | 109 | 4.8 | 14.5 | 0.00 | 0.00 | 0.00 | 78 | 1010.8 |
| 20260506193107 | 17 | 101 | 6.4 | 14.5 | 0.00 | 0.00 | 0.00 | 77 | 1010.7 |
| 20260506191600 | 18 | 108 | 8.0 | 17.7 | 0.00 | 0.00 | 0.00 | 76 | 1010.5 |
| 20260506184558 | 18 | 120 | 8.0 | 20.9 | 0.00 | 0.00 | 0.00 | 74 | 1010.3 |
| 20260506183106 | 18 | 84 | 8.0 | 16.1 | 0.00 | 0.00 | 0.00 | 73 | 1010.2 |
| 20260506181603 | 18 | 109 | 12.9 | 20.9 | 0.00 | 0.00 | 0.00 | 72 | 1010.0 |
| 20260506180056 | 18 | 119 | 8.0 | 24.1 | 0.00 | 0.00 | 0.00 | 72 | 1009.9 |
| 20260506174557 | 18 | 92 | 12.9 | 22.5 | 0.00 | 0.00 | 0.00 | 71 | 1009.9 |
| 20260506173104 | 19 | 105 | 14.5 | 25.7 | 0.00 | 0.00 | 0.00 | 69 | 1009.8 |
| 20260506171555 | 19 | 132 | 14.5 | 25.7 | 0.00 | 0.00 | 0.00 | 68 | 1009.7 |
| 20260506170104 | 19 | 124 | 12.9 | 22.5 | 0.00 | 0.00 | 0.00 | 68 | 1009.6 |
| 20260506164606 | 19 | 119 | 12.9 | 22.5 | 0.00 | 0.00 | 0.00 | 66 | 1009.7 |
| 20260506163059 | 20 | 93 | 12.9 | 24.1 | 0.00 | 0.00 | 0.00 | 68 | 1009.7 |
| 20260506161553 | 20 | 119 | 11.3 | 22.5 | 0.00 | 0.00 | 0.00 | 68 | 1009.6 |
| 20260506160056 | 20 | 104 | 8.0 | 22.5 | 0.00 | 0.00 | 0.00 | 69 | 1009.4 |
| 20260506154553 | 20 | 101 | 12.9 | 27.4 | 0.00 | 0.00 | 0.00 | 69 | 1009.4 |
| 20260506153048 | 20 | 85 | 16.1 | 30.6 | 0.00 | 0.00 | 0.00 | 68 | 1009.4 |
| 20260506151547 | 21 | 96 | 11.3 | 25.7 | 0.00 | 0.00 | 0.00 | 67 | 1009.4 |
| 20260506150059 | 20 | 119 | 14.5 | 29.0 | 0.00 | 0.00 | 0.00 | 67 | 1009.4 |
| 20260506144545 | 21 | 130 | 17.7 | 27.4 | 0.00 | 0.00 | 0.00 | 67 | 1009.6 |
| 20260506143045 | 20 | 125 | 14.5 | 29.0 | 0.00 | 0.00 | 0.00 | 68 | 1009.4 |